Photometre #648[NE_1.6] Paris AOT

File : 20190926_648.hum

26/09/2019,06:37:05,TEMP=17.1,BA=5.60,STAT.A=1.0,ExtBa=13.92
26/09/2019,06:41:02,TEMP=17.5,BA=5.60,STAT.A=1.0,ExtBa=13.91
26/09/2019,06:45:40,TEMP=17.6,BA=5.60,STAT.A=1.0,ExtBa=13.91
26/09/2019,06:51:10,TEMP=17.7,BA=5.60,STAT.A=1.0,ExtBa=13.93
26/09/2019,06:57:50,TEMP=17.7,BA=5.60,STAT.A=1.0,ExtBa=13.94
26/09/2019,07:06:04,TEMP=17.8,BA=5.56,STAT.A=1.0,ExtBa=13.94
26/09/2019,07:16:31,TEMP=18.1,BA=5.60,STAT.B=1.0,ExtBa=13.93
26/09/2019,07:21:32,TEMP=18.2,BA=5.60,STAT.A=1.0,ExtBa=13.92
26/09/2019,07:27:11,TEMP=18.3,BA=5.60,STAT.A=1.0,ExtBa=13.92
26/09/2019,07:33:34,TEMP=18.5,BA=5.60,STAT.A=1.0,ExtBa=13.92
26/09/2019,07:40:51,TEMP=18.6,BA=5.60,STAT.A=1.0,ExtBa=13.92
26/09/2019,07:49:18,TEMP=18.8,BA=5.60,STAT.C=1.0,ExtBa=13.92
26/09/2019,07:59:11,TEMP=18.9,BA=5.48,STAT.A=1.0,ExtBa=13.92
26/09/2019,08:10:57,TEMP=19.0,BA=5.60,STAT.A=1.0,ExtBa=13.91
26/09/2019,08:25:18,TEMP=19.2,BA=5.60,STAT.A=1.0,ExtBa=13.92
26/09/2019,08:42:45,TEMP=19.6,BA=5.60,STAT.F,ExtBa=13.86
26/09/2019,08:57:43,TEMP=19.6,BA=5.60,STAT.D=1.0,ExtBa=13.91
26/09/2019,09:12:43,TEMP=19.7,BA=5.60,STAT.D=1.0,ExtBa=13.90
26/09/2019,09:27:21,TEMP=20.1,BA=5.60,STAT.h
26/09/2019,09:27:22,TEMP=20.1,BA=5.60,STAT.h
26/09/2019,09:42:21,TEMP=20.1,BA=5.60,STAT.h
26/09/2019,09:42:22,TEMP=20.1,BA=5.60,STAT.h
26/09/2019,09:57:21,TEMP=20.1,BA=5.60,STAT.h
26/09/2019,09:57:22,TEMP=20.1,BA=5.60,STAT.h
26/09/2019,10:12:21,TEMP=20.1,BA=5.60,STAT.h
26/09/2019,10:12:22,TEMP=20.1,BA=5.60,STAT.h
26/09/2019,10:27:21,TEMP=20.1,BA=5.60,STAT.h
26/09/2019,10:27:22,TEMP=20.1,BA=5.60,STAT.h
26/09/2019,10:42:45,TEMP=22.6,BA=5.60,STAT.F,ExtBa=13.85
26/09/2019,10:57:44,TEMP=22.5,BA=5.60,STAT.D=1.5,ExtBa=13.91
26/09/2019,11:12:44,TEMP=21.8,BA=5.60,STAT.D=1.5,ExtBa=13.90
26/09/2019,11:27:44,TEMP=21.5,BA=5.60,STAT.D=1.5,ExtBa=13.91
26/09/2019,11:42:45,TEMP=21.8,BA=5.60,STAT.F,ExtBa=13.86
26/09/2019,11:57:44,TEMP=22.7,BA=5.60,STAT.D=1.5,ExtBa=13.90
26/09/2019,12:12:44,TEMP=22.7,BA=5.60,STAT.D=1.5,ExtBa=13.90
26/09/2019,12:27:44,TEMP=22.6,BA=5.60,STAT.D=1.5,ExtBa=13.89
26/09/2019,12:42:45,TEMP=22.1,BA=5.60,STAT.F,ExtBa=13.85
26/09/2019,13:01:19,TEMP=22.9,BA=5.44,STAT.b=1.5
26/09/2019,13:12:43,TEMP=22.4,BA=5.56,STAT.D=1.5,ExtBa=13.48
26/09/2019,13:27:44,TEMP=21.8,BA=5.56,STAT.D=1.5,ExtBa=13.67
26/09/2019,13:42:45,TEMP=21.8,BA=5.60,STAT.F,ExtBa=13.86
26/09/2019,13:57:44,TEMP=22.7,BA=5.60,STAT.D=1.5,ExtBa=13.95
26/09/2019,14:12:43,TEMP=23.7,BA=5.60,STAT.D=1.5,ExtBa=13.93
26/09/2019,14:27:43,TEMP=23.2,BA=5.60,STAT.D=1.5,ExtBa=13.92
26/09/2019,14:42:45,TEMP=22.7,BA=5.60,STAT.F,ExtBa=13.88
26/09/2019,15:00:12,TEMP=22.2,BA=5.48,STAT.A=1.5,ExtBa=13.90
26/09/2019,15:14:32,TEMP=21.7,BA=5.60,STAT.A=1.5,ExtBa=13.90
26/09/2019,15:26:18,TEMP=21.5,BA=5.56,STAT.A=1.5,ExtBa=13.90
26/09/2019,15:36:12,TEMP=21.4,BA=5.56,STAT.C=1.5,ExtBa=13.90
26/09/2019,15:44:37,TEMP=21.3,BA=5.56,STAT.A=1.5,ExtBa=13.90
26/09/2019,15:51:54,TEMP=21.3,BA=5.56,STAT.A=1.5,ExtBa=13.90
26/09/2019,15:58:17,TEMP=21.2,BA=5.56,STAT.A=1.5,ExtBa=13.90
26/09/2019,16:03:56,TEMP=21.1,BA=5.44,STAT.A=1.5,ExtBa=13.89
26/09/2019,16:08:57,TEMP=21.1,BA=5.44,STAT.B=1.5,ExtBa=13.88
26/09/2019,16:19:24,TEMP=20.9,BA=5.44,STAT.A=1.5,ExtBa=13.89
26/09/2019,16:27:38,TEMP=20.9,BA=5.44,STAT.A=1.5,ExtBa=13.89
26/09/2019,16:34:18,TEMP=20.8,BA=5.52,STAT.A=1.5,ExtBa=13.89
26/09/2019,16:39:47,STAT.p
26/09/2019,16:44:26,TEMP=20.8,BA=5.48,STAT.A=1.5,ExtBa=13.88
26/09/2019,16:48:23,TEMP=20.9,BA=5.48,STAT.A=1.0,ExtBa=13.85